カタログに戻る

FENGYUN 1C DEB

運用中SSO
NORAD 30668·DEBRIS·🇨🇳 China

打ち上げ May 10, 1999 から Taiyuan Satellite Launch Center

Loading…

次のパス (今後24時間)

TLE

最新Source: Space-Track

元期: Sep 13, 2026, 17:50 UTC

1 30668U 99025AQA 26256.74374845  .00001754  00000-0  92308-3 0  9993
2 30668  99.1199 340.0822 0080208 192.3826 299.8378 14.13742386999395

AllMySatでFENGYUN 1C DEBをリアルタイム追跡

Download on the App Store